Scottsdale, AZ

4:52 PM MST on August 19, 2017 (GMT -0700)
Scottsdale

Weather History for KSDL - November, 2012

Change the Weather History Date:

Sunday, November 18, 2012

  Actual Average Record
Temperature  
Mean Temperature 65 °F -  
Max Temperature 75 °F 70 °F 86 °F (2008)
Min Temperature 55 °F 47 °F 41 °F (2014)
Growing Degree Days 15 (Base 50)    
Moisture  
Dew Point 39 °F    
Average Humidity 39    
Maximum Humidity 55    
Minimum Humidity 27    
Precipitation  
Precipitation 0.00 in - - ()
Sea Level Pressure  
Sea Level Pressure 30.04 in    
Wind  
Wind Speed 0 mph (ESE)    
Max Wind Speed 6 mph    
Max Gust Speed -    
Visibility 10 miles    
Events      
Averages and records for this station are not official NWS values.
T = Trace of Precipitation, MM = Missing Value Source: NWS Daily Summary

Daily Weather History Graph

Daily Weather History Graph

Search for Another Location

Airport or City:

Trip Planner

Search our weather history database for the weather conditions in past years. The results will help you decide how hot, cold, wet, or windy it might be!

Date:

Astronomy

Nov. 18, 2012 Rise Set
Actual Time 7:02 AM MST 5:22 PM MST
Civil Twilight 6:36 AM MST 5:49 PM MST
Nautical Twilight 6:05 AM MST 6:19 PM MST
Astronomical Twilight 5:36 AM MST 6:49 PM MST
Moon 11:35 AM MST (11/18) 10:42 PM MST (11/18)
Length of Visible Light 11h 13m
Length of Day
10h 20m
Waxing Crescent, 31% of the Moon is Illuminated
Nov 18
Waxing Crescent
Nov 20
First Quarter
Nov 28
Full
Dec 6
Last Quarter
Dec 13
New

Hourly Weather History & Observations

Time (MST) Temp. Dew Point Humidity Pressure Visibility Wind Dir Wind Speed Gust Speed Precip Events Conditions
12:53 AM 60.1 °F 34.0 °F 38% 30.03 in 10.0 mi Calm Calm - N/A   Overcast
1:53 AM 59.0 °F 35.1 °F 41% 30.02 in 10.0 mi Calm Calm - N/A   Mostly Cloudy
2:53 AM 55.9 °F 37.0 °F 49% 30.02 in 10.0 mi Calm Calm - N/A   Partly Cloudy
3:53 AM 55.9 °F 37.0 °F 49% 30.01 in 10.0 mi Calm Calm - N/A   Partly Cloudy
4:53 AM 57.0 °F 37.0 °F 47% 30.01 in 10.0 mi Calm Calm - N/A   Overcast
5:53 AM 57.0 °F 37.0 °F 47% 30.03 in 10.0 mi Calm Calm - N/A   Mostly Cloudy
6:53 AM 57.0 °F 37.9 °F 49% 30.04 in 10.0 mi Calm Calm - N/A   Overcast
7:53 AM 59.0 °F 39.0 °F 48% 30.06 in 10.0 mi Calm Calm - N/A   Mostly Cloudy
8:53 AM 64.0 °F 37.9 °F 38% 30.06 in 10.0 mi Calm Calm - N/A   Clear
9:53 AM 68.0 °F 35.1 °F 30% 30.07 in 10.0 mi Calm Calm - N/A   Clear
10:53 AM 71.1 °F 37.0 °F 29% 30.07 in 10.0 mi South 3.5 mph - N/A   Clear
11:53 AM 73.0 °F 37.0 °F 27% 30.06 in 10.0 mi Variable 5.8 mph - N/A   Clear
12:53 PM 73.9 °F 37.9 °F 27% 30.03 in 10.0 mi Calm Calm - N/A   Clear
1:53 PM 75.0 °F 42.1 °F 31% 30.01 in 10.0 mi Variable 3.5 mph - N/A   Clear
2:53 PM 75.9 °F 41.0 °F 29% 30.01 in 10.0 mi Calm Calm - N/A   Clear
3:53 PM 75.0 °F 41.0 °F 29% 30.01 in 10.0 mi Calm Calm - N/A   Clear
4:53 PM 75.0 °F 41.0 °F 29% 30.02 in 10.0 mi Calm Calm - N/A   Clear
5:53 PM 72.0 °F 41.0 °F 33% 30.02 in 10.0 mi Calm Calm - N/A   Clear
6:53 PM 70.0 °F 42.1 °F 36% 30.04 in 10.0 mi Calm Calm - N/A   Clear
7:53 PM 66.9 °F 41.0 °F 39% 30.05 in 10.0 mi Calm Calm - N/A   Clear
8:53 PM 66.0 °F 41.0 °F 40% 30.05 in 10.0 mi NNE 4.6 mph - N/A   Clear
9:53 PM 63.0 °F 42.1 °F 46% 30.06 in 10.0 mi Calm Calm - N/A   Clear
10:53 PM 60.1 °F 42.1 °F 51% 30.06 in 10.0 mi Calm Calm - N/A   Clear
11:53 PM 57.0 °F 41.0 °F 55% 30.08 in 10.0 mi Calm Calm - N/A   Clear